RH
29 30 34 36 36 36 35 34 33 32 31 32 32 32 32 31 32 35 39 42 44 45 44 42 39 36 33 31 28 26 24 22 23 24 26 30 33 36 40 45 50 55 60 64 67 67 65 62 60 59 59 58 57 57 56 55 55 53 52 50 49 49 51 50 45 41 41 43 44 45 46 45 43 41 40 39 38 37 39 41 41 40 38 37 36
25 26 30 33 35 34 34 32 29 26 24 24 25 27 28 28 27 27 30 34 37 39 40 40 37 36 33 31 30 28 27 25 23 23 23 25 28 30 32 35 39 44 50 56 61 66 67 65 64 64 63 62 60 59 59 58 58 57 55 54 53 51 52 52 49 46 44 44 46 47 48 47 45 44 43 41 41 39 39 42 42 40 39 38 37
21 22 24 28 30 31 30 27 26 25 26 27 28 29 29 29 27 26 26 27 27 29 31 31 31 30 28 28 28 27 26 27 26 25 24 25 26 28 30 31 32 35 39 43 49 56 60 63 64 67 68 67 66 65 63 61 60 60 60 59 58 57 56 56 53 49 47 46 47 49 49 49 48 47 46 44 43 40 39 41 43 41 39 39 38
17 18 20 23 26 26 26 25 25 26 27 29 30 30 31 29 27 26 24 23 22 23 23 25 26 26 25 27 28 29 29 29 29 29 28 29 29 29 29 29 29 30 32 35 38 43 49 54 59 64 67 68 69 71 72 69 64 63 63 64 63 62 62 62 59 55 51 49 48 48 50 51 51 50 49 47 45 42 40 41 43 42 40 39 39
23 24 26 27 28 28 28 28 28 28 27 27 26 26 25 25 24 23 21 21 20 20 20 21 24 28 29 30 31 32 33 33 33 31 30 30 31 31 31 30 29 28 28 29 31 33 36 40 46 52 58 61 65 69 74 76 73 68 66 67 69 68 67 67 65 62 58 54 50 49 50 51 52 52 52 50 47 45 43 41 43 44 41 39 39
29 30 30 30 30 29 28 28 27 27 26 25 25 24 23 22 21 20 20 19 18 18 18 18 19 23 28 32 33 34 34 34 34 33 31 30 29 30 30 30 30 29 27 26 26 26 27 29 31 35 40 45 51 56 62 69 74 75 72 70 73 75 74 71 70 68 65 60 56 53 51 50 51 53 53 53 50 48 46 43 43 45 43 40 39
31 31 30 28 28 26 25 25 24 24 24 23 23 22 21 21 20 19 19 18 17 17 16 16 16 16 18 22 26 29 30 31 31 30 29 28 27 27 26 26 26 26 25 24 23 22 22 22 22 23 23 26 31 37 43 50 58 67 73 75 77 79 79 77 76 74 71 67 63 59 55 53 53 53 54 55 54 51 48 44 43 45 45 41 39
30 28 27 27 27 26 24 24 23 23 23 23 23 22 21 21 20 20 19 18 17 17 16 15 15 15 14 14 15 17 18 21 22 23 22 22 22 22 22 22 22 21 22 22 21 19 18 17 16 16 16 16 17 20 25 32 39 48 59 69 77 81 83 82 82 80 76 72 69 64 61 58 56 55 55 55 54 50 48 46 45 47 47 44 42
31 31 31 31 31 31 30 29 29 29 29 28 28 26 24 23 22 20 20 19 18 17 17 16 15 15 16 15 14 14 13 13 14 14 14 15 15 16 16 17 17 18 18 19 18 18 16 15 14 14 13 13 13 13 13 17 23 31 39 51 64 74 80 84 85 84 81 78 74 69 66 62 59 57 56 55 53 52 52 50 48 49 50 48 45
37 37 37 38 39 39 38 38 37 37 35 33 31 28 25 24 22 21 20 20 18 17 17 16 16 16 16 16 16 15 15 13 13 12 12 12 12 12 12 12 13 13 14 14 15 15 14 13 13 12 13 12 12 12 11 11 13 17 23 33 44 54 66 76 83 85 85 82 79 75 71 66 62 60 58 56 57 59 58 55 52 51 51 50 48
42 42 42 42 42 42 42 42 41 38 36 33 30 27 25 24 23 23 22 21 20 18 17 16 15 15 15 15 14 14 14 14 13 13 13 13 13 13 13 13 13 13 12 12 12 12 12 11 11 10 11 11 10 10 11 11 10 10 14 21 30 38 46 57 69 80 87 87 84 81 77 70 65 64 62 61 61 62 61 59 57 55 54 52 50
43 42 42 42 42 42 41 38 36 34 32 31 29 28 28 27 26 26 25 24 23 21 20 19 17 17 16 15 14 14 13 13 13 14 15 15 16 17 17 17 16 16 16 14 13 11 10 10 9 10 9 9 10 10 9 10 9 9 10 13 19 27 33 40 49 62 77 86 88 87 83 76 71 69 67 66 65 65 66 65 63 60 57 55 52
42 42 42 43 43 40 38 34 31 31 30 30 29 28 28 27 26 26 25 25 25 24 23 23 22 21 21 20 19 17 16 15 15 17 18 18 19 19 20 21 20 20 19 19 17 15 14 12 11 10 9 9 9 10 10 10 9 10 11 11 13 17 24 32 39 45 57 72 83 87 86 84 80 75 72 71 70 69 70 68 66 64 62 59 57
45 44 43 43 40 37 35 32 31 31 30 30 29 27 27 26 26 27 27 26 26 25 25 25 24 23 23 23 22 21 19 19 18 19 20 20 20 21 23 25 24 23 21 20 20 19 18 17 15 13 11 10 10 10 10 11 11 11 13 13 13 14 16 23 32 39 45 54 65 75 84 89 88 83 79 77 73 70 69 69 69 68 66 64 62
45 44 42 40 38 36 35 34 34 33 32 31 29 28 29 29 29 30 29 28 27 26 25 24 23 22 21 22 22 21 19 19 19 20 21 21 22 24 27 28 27 26 23 21 21 22 21 22 22 19 15 12 12 12 11 11 11 12 12 13 15 16 16 18 23 32 43 50 52 56 68 84 93 91 87 82 76 71 70 71 72 72 69 66 64
46 44 42 40 39 38 37 36 35 33 31 30 31 31 32 31 31 30 29 27 26 25 24 24 23 23 23 23 24 23 21 20 21 23 24 26 30 33 35 34 33 31 27 24 23 23 24 25 27 26 23 19 15 13 13 13 13 12 12 12 13 15 17 19 19 23 36 51 54 48 50 67 86 94 93 88 83 78 74 73 73 73 72 69 66
45 43 41 40 39 38 37 35 33 31 31 32 32 31 31 30 29 28 27 26 25 26 27 27 27 27 27 27 28 27 25 23 24 26 28 32 37 40 39 38 38 36 33 29 29 28 26 26 27 28 28 26 21 17 16 16 16 15 13 12 12 12 13 16 19 21 26 39 51 52 48 52 69 86 95 94 89 86 81 76 70 70 73 73 70
42 41 40 39 39 37 35 33 32 33 34 33 32 30 29 29 28 27 27 28 28 30 31 30 29 28 29 28 28 28 26 25 25 27 28 30 36 39 40 39 39 38 36 34 33 33 30 27 27 28 28 29 28 25 22 21 20 18 16 14 13 12 11 11 15 19 21 26 36 47 52 54 59 72 87 94 94 92 88 80 73 71 73 73 73
40 39 39 39 37 35 34 34 36 36 34 32 31 30 29 28 27 28 31 32 32 32 31 30 28 27 29 30 30 30 30 28 28 30 30 32 37 41 42 41 39 38 38 37 36 35 32 30 29 30 30 30 30 30 29 28 27 22 18 18 17 14 11 10 11 14 18 20 23 32 46 56 59 62 73 85 94 96 92 86 82 79 74 70 72
40 40 39 37 35 35 37 39 37 35 32 32 31 30 27 27 29 33 35 35 34 32 31 31 30 30 33 36 37 38 39 37 37 41 43 45 49 50 48 46 45 43 42 41 40 38 36 34 32 31 32 33 32 32 32 32 31 27 21 19 19 16 12 11 11 11 13 16 20 24 35 51 61 62 62 71 83 91 92 90 89 86 80 75 76
41 40 37 35 36 39 40 37 33 32 32 31 28 26 27 31 34 36 35 34 34 33 34 36 37 38 42 47 49 51 53 51 51 54 58 60 61 60 58 56 55 53 50 48 46 44 42 40 37 34 34 35 34 33 33 32 33 31 27 21 17 15 14 13 12 11 11 14 20 25 30 42 57 65 63 62 69 79 87 92 92 90 87 84 82
40 38 37 38 39 39 36 33 32 32 30 28 26 27 32 36 36 36 35 35 37 40 44 48 49 50 52 56 57 57 57 57 56 58 62 65 66 67 66 64 63 62 58 54 52 50 48 47 45 43 42 40 37 35 34 33 33 33 31 26 19 15 16 16 15 14 14 16 21 27 31 37 48 60 64 62 61 66 77 86 92 93 91 88 87
39 38 38 39 38 35 33 33 32 30 27 27 29 33 37 39 39 39 40 42 47 53 56 57 57 55 54 55 56 55 54 54 54 55 58 62 65 67 67 67 69 69 65 60 57 56 55 53 52 52 52 50 45 40 36 35 35 34 33 31 24 19 17 18 19 18 19 20 24 28 32 35 40 49 59 63 61 59 64 74 84 92 94 93 91
38 38 39 37 35 34 33 32 30 28 27 30 36 42 45 45 45 45 46 52 58 61 61 61 59 55 53 51 51 52 51 50 52 54 57 60 64 66 67 67 68 69 67 63 60 58 56 55 54 56 58 58 55 49 43 39 37 36 35 33 29 24 23 25 25 23 23 26 29 28 29 32 35 39 48 58 62 61 61 64 73 83 91 95 95
38 38 37 36 35 34 33 30 28 28 31 38 46 50 49 48 47 48 53 61 66 66 64 63 58 54 52 50 49 49 50 50 51 52 53 53 55 58 62 66 68 69 66 63 61 60 59 59 58 58 59 60 61 59 52 45 41 39 38 37 32 28 28 30 30 29 29 29 30 30 27 27 30 34 38 47 59 66 65 64 66 72 80 89 94
38 38 37 36 35 33 31 28 27 30 39 49 55 52 47 47 48 51 60 69 72 70 67 63 60 57 54 51 49 49 49 50 50 48 46 44 42 43 48 57 65 70 69 65 64 64 65 64 62 60 59 59 62 64 60 53 47 44 42 41 37 32 29 30 31 32 32 31 30 30 25 21 24 31 33 37 49 62 67 67 66 67 72 79 87
39 39 38 36 35 32 29 27 29 37 49 56 54 47 44 46 49 54 65 74 76 73 70 67 64 60 55 51 50 49 49 49 49 48 46 43 39 37 39 44 51 61 67 69 68 68 67 68 67 66 64 62 63 66 64 59 55 52 47 44 40 34 29 28 29 30 32 32 30 28 23 20 24 31 33 32 38 51 64 70 70 69 71 75 81
40 40 37 36 33 30 27 28 35 46 55 55 49 42 41 44 48 54 65 75 78 76 73 70 66 60 55 52 50 48 48 50 51 51 50 46 43 41 41 43 46 53 61 67 71 72 73 73 72 72 70 67 67 67 66 63 61 59 57 51 44 37 31 28 28 30 31 32 32 30 27 27 29 31 32 32 33 40 54 67 72 73 75 78 80
41 39 37 34 31 28 28 34 45 54 56 50 43 40 40 42 45 51 61 72 77 75 73 70 66 61 58 55 53 50 49 51 55 56 55 54 52 50 49 50 52 55 59 64 68 72 74 75 76 75 74 73 72 72 70 68 65 64 64 63 57 47 38 31 29 31 32 32 33 33 32 32 32 31 32 33 32 33 42 58 71 76 78 81 83
41 39 36 33 29 27 31 42 53 58 53 44 39 39 38 41 44 48 55 66 73 75 74 71 69 66 62 60 60 59 55 55 58 59 60 62 60 55 52 52 54 56 58 62 66 70 73 76 78 78 77 78 77 76 74 72 70 68 67 68 67 61 51 40 33 31 31 32 33 33 33 33 33 33 33 33 33 33 35 48 66 77 80 82 83
40 38 35 31 28 29 38 51 58 57 49 42 39 38 38 39 42 45 51 59 67 71 72 73 73 72 68 65 66 66 63 62 63 63 65 67 66 60 54 52 55 60 64 66 68 72 75 77 79 80 79 79 80 80 77 73 71 70 70 69 67 64 59 51 40 34 33 33 33 33 34 33 33 33 33 32 34 34 34 44 62 76 80 81 81
40 37 34 29 28 35 47 58 59 52 45 41 40 40 40 39 39 41 48 55 62 66 67 67 70 73 73 72 71 69 67 66 67 68 69 70 70 65 57 53 57 64 69 71 72 75 78 79 79 78 78 78 79 82 80 75 71 73 76 75 70 65 61 56 48 41 37 34 33 33 34 33 33 33 33 33 34 34 35 45 60 73 80 81 80
41 37 32 29 31 42 55 61 57 49 43 42 41 42 42 41 40 39 43 49 57 63 66 65 65 67 72 75 75 73 71 70 71 74 75 75 74 70 63 58 59 64 68 70 71 75 79 81 80 79 79 78 77 79 81 77 73 75 80 81 76 70 65 60 55 50 43 36 34 34 34 33 34 33 32 33 34 34 40 51 61 70 78 82 81
40 35 32 30 36 50 61 62 55 48 44 44 43 43 43 43 42 42 43 45 51 58 63 65 65 65 68 73 77 77 74 73 75 80 83 81 78 74 68 62 59 61 65 68 69 72 77 82 84 84 83 81 79 80 83 82 79 79 83 84 79 73 67 62 60 56 47 38 34 35 34 33 33 32 32 33 33 35 47 58 62 66 75 82 81
37 34 32 33 43 58 65 61 54 48 46 45 44 44 44 44 43 44 46 48 50 53 57 62 64 65 66 70 77 79 77 75 79 85 87 85 80 76 72 66 60 59 63 66 69 71 75 81 87 91 91 88 85 84 85 85 83 83 83 83 81 77 71 64 60 56 48 40 36 35 34 34 33 33 33 32 33 39 52 61 62 64 73 81 82
36 34 32 37 51 65 68 61 54 50 48 46 46 46 46 46 46 46 48 50 52 53 55 57 61 64 66 69 76 81 80 77 79 83 86 86 83 79 75 70 63 59 61 64 69 74 78 82 88 96 98 96 93 92 91 88 86 85 83 82 83 81 75 70 65 59 52 43 37 34 35 35 34 33 34 34 37 45 56 61 61 63 71 79 83
36 33 33 43 60 70 68 61 55 51 49 47 47 48 48 48 48 48 49 50 52 53 55 56 59 62 65 68 75 83 84 80 78 80 83 86 87 85 81 75 67 61 59 62 66 71 77 82 87 95 101 101 98 97 95 89 85 84 83 83 84 83 80 76 72 65 56 45 37 35 37 35 34 36 40 42 46 52 58 61 61 63 69 78 84
34 32 37 52 67 71 66 60 56 53 50 48 48 50 50 49 49 50 51 51 52 53 55 56 58 61 64 67 72 81 87 85 81 81 84 89 91 90 86 81 74 65 61 63 64 66 73 81 86 91 98 102 101 98 94 89 86 86 87 87 89 90 88 82 76 69 60 49 41 37 36 36 39 46 52 53 53 56 59 61 64 67 72 80 88
33 34 45 61 71 71 66 60 56 54 51 50 50 52 52 51 51 52 52 52 53 54 55 56 58 60 64 66 68 74 83 87 84 81 84 89 93 93 89 85 79 70 63 62 63 65 69 76 83 88 94 99 101 99 95 93 93 94 96 97 98 99 97 89 79 71 61 50 42 38 38 43 52 58 59 57 56 59 63 67 71 75 77 82 91
32 38 53 67 73 72 67 61 57 56 54 52 52 54 54 54 54 54 53 53 54 55 55 57 58 59 62 65 66 68 76 85 87 84 84 86 91 94 93 89 84 77 68 63 63 65 65 68 75 84 90 94 98 100 99 98 99 99 100 101 99 95 90 81 72 65 58 52 49 49 51 56 60 61 59 60 63 67 71 74 78 80 80 84 93
33 43 59 70 75 74 68 61 58 57 56 54 54 55 56 56 56 56 56 55 55 56 56 57 59 59 60 65 68 69 74 84 90 90 87 88 91 94 95 93 89 84 77 69 65 65 66 65 67 73 80 86 91 96 99 100 100 98 96 95 91 85 79 73 67 64 62 61 61 61 61 62 62 62 64 67 71 76 77 78 80 81 81 86 95
36 48 63 73 77 75 67 61 60 59 57 56 56 56 57 57 57 57 58 58 57 57 58 57 59 60 60 64 68 71 76 85 93 93 90 90 92 95 96 96 94 90 85 78 71 67 67 67 66 67 70 73 76 80 82 84 86 86 86 85 83 79 75 72 69 66 65 64 64 63 62 63 66 70 73 75 77 79 79 79 81 82 82 88 97
39 53 68 77 80 74 65 61 61 60 58 57 57 56 57 58 58 59 61 60 59 60 60 59 59 60 61 63 67 71 77 86 94 96 93 91 93 96 97 96 95 93 91 88 81 73 68 67 67 66 65 64 65 66 67 69 71 72 73 73 73 71 69 68 66 65 64 64 64 64 66 70 75 78 79 78 79 80 80 80 82 82 83 90 99
44 59 73 82 81 72 63 62 63 61 59 58 57 56 57 58 59 61 63 63 62 61 61 61 60 61 61 63 66 70 77 85 93 97 95 93 95 97 96 93 92 93 92 92 90 85 78 73 70 67 66 66 66 66 66 66 66 66 66 66 66 66 65 65 65 66 67 68 70 73 76 79 81 81 80 80 80 80 80 81 82 82 83 90 98
49 64 78 85 81 70 64 65 65 62 60 59 57 56 57 58 59 62 64 64 63 62 62 62 62 62 63 64 67 71 78 85 91 96 96 95 96 98 96 91 90 93 95 94 93 92 90 86 81 77 76 76 75 73 71 70 69 69 69 69 68 68 68 69 71 74 77 79 81 82 83 83 82 82 82 82 81 81 81 82 83 83 83 88 96
57 70 82 86 78 68 65 68 66 62 61 60 57 57 57 58 59 63 64 64 64 64 63 63 64 64 65 66 68 72 79 86 92 96 96 95 96 98 96 91 91 97 100 98 95 94 95 94 92 88 86 86 87 86 83 80 79 78 78 79 79 80 81 82 84 88 91 92 92 92 92 92 90 89 88 88 87 85 84 83 84 85 86 90 97
66 77 83 81 72 67 68 69 65 63 63 61 59 59 58 57 59 62 63 65 65 65 65 66 66 66 67 69 70 73 78 85 92 97 98 96 96 97 97 95 95 99 101 99 97 97 97 96 94 93 92 92 92 93 92 91 92 91 90 90 92 94 95 95 97 98 99 99 99 99 99 99 99 97 96 96 95 94 92 90 89 90 92 95 99
75 82 80 72 66 67 69 68 65 65 65 63 62 62 60 59 59 60 62 65 66 67 67 68 68 68 70 71 73 75 79 84 90 96 99 98 97 97 98 97 97 98 100 100 100 100 100 97 95 96 97 96 96 96 96 97 98 97 97 97 98 99 100 100 100 100 100 100 100 100 100 100 100 100 100 99 100 99 99 98 97 97 97 99 100
83 83 75 65 62 65 65 64 65 67 66 64 65 65 63 61 61 60 62 64 65 66 68 70 71 70 71 72 75 80 83 85 88 92 96 98 99 99 99 99 98 99 100 101 101 101 101 100 98 97 98 98 98 98 98 98 98 98 98 99 100 100 100 100 100 100 100 100 100 100 100 100 100 100 100 100 100 100 100 100 100 100 100 100 100
87 81 69 62 62 61 58 58 63 66 66 66 66 66 65 64 63 62 62 63 65 66 68 70 71 72 72 72 75 82 87 89 89 90 92 95 98 99 100 100 99 99 99 98 99 101 102 101 100 99 97 97 98 99 98 99 99 99 99 99 99 100 100 100 100 100 100 100 100 100 100 100 100 100 100 100 100 100 100 100 100 100 100 100 100
86 74 65 64 63 57 52 54 59 61 64 66 67 67 66 66 65 64 64 64 64 65 67 68 70 73 74 74 76 81 87 91 91 91 92 93 95 96 97 98 98 99 98 97 98 100 101 101 102 101 98 97 98 99 99 99 99 99 99 100 100 100 100 100 100 100 100 100 100 100 100 100 100 100 100 100 100 100 100 100 100 100 100 99 99